Theta_e
312 311 312 311 309 312 311 309 307 306 306 308 307 307 309 309 302 300 300 299 300 300 299 297 295 294 294 293 292 291 291 291 291 292 292 292 293 292 292 292 292 292 292 291
311 312 310 310 309 309 308 309 307 306 306 306 306 306 306 307 304 304 302 300 301 299 298 296 294 294 293 293 292 291 291 291 291 291 291 291 291 291 292 291 291 291 290 290
311 313 309 310 308 308 307 307 307 308 304 303 301 304 302 304 305 305 304 304 301 300 299 295 294 293 293 293 292 291 291 291 291 290 290 290 290 290 290 290 290 290 289 289
311 309 308 307 308 307 310 305 306 306 305 306 304 310 305 305 304 302 304 304 303 300 297 297 294 293 293 293 292 291 290 290 290 290 290 290 289 289 290 289 289 289 289 288
313 307 307 308 308 305 308 304 305 304 304 302 303 302 302 300 303 305 303 304 304 302 300 298 295 294 293 292 291 290 290 290 290 290 290 290 289 289 289 289 289 288 288 288
308 307 305 307 305 304 304 305 301 298 299 304 305 304 304 301 302 303 302 303 304 302 299 297 296 294 293 292 290 290 290 290 289 290 290 289 288 288 288 288 288 288 287 287
310 306 305 306 307 306 304 306 310 308 304 310 300 300 307 304 301 302 301 301 302 301 298 297 295 293 292 291 290 290 290 289 289 289 289 289 288 288 288 287 287 287 287 286
312 313 305 303 307 307 303 306 310 307 307 309 298 306 307 301 301 299 298 299 300 299 298 297 296 294 293 291 290 290 289 289 289 289 289 288 287 287 287 287 286 286 286 286
311 311 303 304 303 305 305 305 305 305 289 299 308 304 303 302 299 296 295 297 300 299 298 297 295 293 292 291 290 289 289 289 289 288 288 287 287 287 286 286 286 286 285 286
312 314 304 301 302 299 302 301 305 304 307 301 306 306 309 309 304 302 295 295 301 299 298 296 296 294 292 290 289 289 289 288 288 287 287 287 287 286 286 286 286 286 285 284
307 311 307 302 302 303 299 302 301 302 303 307 304 310 305 307 305 304 297 302 303 302 300 297 295 293 292 290 289 289 288 288 287 287 286 286 286 286 286 286 285 285 284 283
306 308 311 308 299 297 302 302 303 307 307 301 303 311 303 304 303 300 298 303 304 302 301 298 295 292 291 290 289 288 288 287 287 287 286 286 286 286 286 285 284 283 282 282
305 308 313 310 304 300 299 301 301 302 301 304 307 311 299 299 298 296 297 301 301 301 299 296 293 292 291 290 288 288 288 287 287 286 286 286 286 285 285 284 283 282 281 282
308 308 309 311 309 304 302 300 301 305 307 309 309 309 309 308 308 308 303 299 302 301 299 296 292 292 291 289 288 288 288 287 286 286 286 285 285 284 284 283 282 281 281 282
307 311 310 309 309 302 303 303 303 302 305 307 309 308 309 308 308 308 309 308 302 298 295 295 292 291 290 289 288 288 287 286 286 286 285 285 284 283 283 281 280 281 281 282
301 310 309 310 308 305 307 308 308 302 303 303 305 307 308 309 309 308 307 306 302 300 299 295 291 291 289 289 288 287 287 286 286 285 285 284 283 282 281 280 280 280 281 281
300 304 301 311 305 304 307 308 309 309 308 306 306 306 307 307 307 306 306 303 302 301 299 293 291 290 289 288 288 287 286 286 285 285 284 283 282 281 280 279 279 280 281 281
301 302 307 310 300 310 310 308 305 307 308 308 308 308 308 308 308 303 305 304 303 300 296 292 290 290 288 288 287 286 286 286 285 284 283 282 281 280 279 278 279 280 280 278
305 304 307 310 310 309 308 303 302 303 307 307 305 307 306 306 298 302 303 303 302 302 299 294 290 289 288 287 286 286 286 285 284 283 283 281 280 278 277 278 278 279 279 278
306 306 309 310 311 312 309 306 298 300 308 308 307 306 305 297 302 305 305 303 299 296 294 292 289 288 287 287 286 286 285 285 284 283 282 280 278 277 276 277 278 277 277 277
304 306 309 311 312 311 308 293 298 306 310 306 307 306 305 299 303 302 301 298 294 294 292 289 288 287 287 286 286 285 285 284 284 283 281 279 277 276 276 276 276 277 277 276
310 308 309 308 311 313 304 295 305 308 308 306 303 306 301 302 300 299 298 295 292 291 288 287 287 287 286 286 286 285 285 285 284 282 280 278 275 275 275 276 275 276 276 275
312 310 312 311 310 306 304 308 308 307 309 307 302 305 303 300 296 296 294 291 290 289 288 287 287 287 286 286 285 285 285 284 283 280 278 276 275 274 274 275 275 275 274 272
309 309 310 310 309 307 303 306 309 309 306 307 304 305 304 301 298 294 292 289 289 288 287 286 286 285 286 285 284 284 284 283 281 279 277 275 274 273 273 274 274 274 272 269
310 309 310 310 309 309 309 309 307 303 304 303 302 302 302 301 297 295 290 288 288 287 286 286 286 286 285 284 284 284 283 282 279 278 276 274 272 271 272 273 273 273 272 267
310 311 311 312 310 309 309 310 310 309 304 302 301 299 300 299 298 293 290 289 289 287 286 285 285 284 284 284 284 283 283 280 278 276 274 272 271 270 270 271 273 273 273 272
Wind_Speed
1 2 6 8 7 4 4 4 8 6 5 4 10 14 21 17 23 26 30 35 42 44 37 33 31 27 23 19 15 12 10 10 11 13 16 19 21 22 23 25 28 30 31 31
3 8 6 4 4 5 4 3 8 8 1 6 11 17 16 16 17 27 29 37 45 43 43 40 36 31 25 20 16 13 11 10 11 14 17 20 23 25 26 27 28 30 31 32
7 3 6 6 5 5 4 5 5 8 6 5 8 9 6 6 14 25 27 33 36 44 47 43 39 35 29 25 19 15 11 10 11 13 17 21 24 27 30 32 32 33 33 34
7 3 7 4 6 8 5 5 3 4 5 4 5 10 4 7 11 6 20 27 35 38 41 47 44 39 33 26 20 15 12 10 11 14 18 22 26 29 31 32 33 34 33 34
8 8 6 6 7 8 7 3 3 1 3 3 4 5 7 3 8 18 9 27 32 37 40 46 49 42 33 28 21 16 12 12 12 15 20 24 26 28 32 34 36 37 37 36
6 1 6 6 2 3 4 2 4 4 1 2 6 7 4 6 8 7 6 12 18 27 35 39 45 39 35 28 22 17 14 13 13 16 21 25 27 31 34 35 37 39 40 39
1 5 2 3 4 2 3 5 3 5 2 8 4 3 12 9 11 10 10 12 16 20 28 35 44 44 39 31 23 18 15 14 14 18 22 25 28 30 32 34 37 39 41 42
5 9 9 6 7 7 6 8 6 8 4 9 2 9 7 11 14 13 14 15 16 20 26 31 44 47 40 31 25 20 16 13 15 19 22 24 27 30 31 35 38 41 42 45
7 8 2 1 2 4 5 6 3 5 2 3 5 8 7 10 9 9 15 14 21 23 26 29 43 45 38 31 25 20 16 14 16 20 22 23 26 30 33 35 38 42 44 45
4 5 2 3 3 2 4 3 4 2 3 6 10 14 13 13 9 10 8 16 19 21 25 30 41 44 38 30 24 20 16 15 17 19 21 24 27 30 33 36 39 42 44 44
5 5 3 3 9 11 3 3 1 2 5 6 4 13 5 8 10 10 11 19 20 21 25 30 40 43 36 29 24 19 15 15 17 19 21 25 28 31 34 37 40 42 44 43
8 5 9 15 1 2 2 8 12 7 7 3 3 22 1 6 9 8 12 20 21 21 24 29 39 41 36 31 27 19 16 15 17 20 23 26 29 32 35 38 41 43 44 43
10 4 8 7 2 2 7 8 7 1 2 12 6 20 5 6 9 13 16 16 19 22 25 29 36 43 40 33 25 19 16 15 17 20 24 27 30 34 37 39 42 43 43 45
23 8 11 19 12 6 6 11 15 22 12 17 30 29 42 21 25 28 26 32 29 29 31 33 39 46 40 32 25 19 17 16 17 21 24 28 31 35 38 40 41 41 42 45
10 15 18 22 28 6 8 13 16 20 29 18 34 27 39 27 30 29 32 30 26 29 31 36 44 48 41 33 25 19 15 15 18 21 25 29 33 36 38 39 40 41 41 43
2 13 12 24 20 8 9 31 18 24 26 24 29 37 31 31 42 36 41 28 26 29 33 36 42 49 38 28 20 15 13 15 17 22 28 31 35 37 38 38 39 40 41 42
8 5 3 25 4 7 8 30 30 34 26 26 26 41 32 30 26 27 30 29 32 32 32 35 41 46 36 25 18 13 12 13 17 23 28 32 36 38 38 37 38 39 41 43
9 8 9 15 4 15 32 21 10 20 30 26 29 31 31 28 38 26 29 31 32 30 28 32 37 40 31 22 16 12 10 13 18 23 28 32 35 36 36 36 36 38 41 43
19 11 12 13 16 25 26 12 8 10 25 24 19 29 29 37 14 36 37 37 36 30 30 32 37 38 28 22 16 10 8 12 18 24 29 33 34 34 35 35 35 37 42 44
20 22 19 15 16 23 33 15 9 4 21 37 23 25 22 8 7 19 17 22 27 25 29 32 39 34 26 20 14 8 7 12 17 24 28 30 31 32 33 33 34 36 40 44
5 10 22 23 23 17 25 9 12 10 39 5 24 25 15 11 18 14 9 16 22 25 29 36 37 31 24 19 12 8 7 11 18 22 25 26 28 29 29 31 32 36 40 43
17 10 9 10 14 23 7 8 20 35 48 27 15 23 24 32 24 24 16 19 25 30 37 38 35 30 25 19 13 9 7 12 17 20 22 22 23 25 26 29 31 34 38 43
18 18 18 14 8 7 18 26 58 61 45 39 21 26 32 30 31 26 25 26 31 39 41 38 34 30 24 19 14 9 7 10 15 17 18 20 20 23 24 28 31 34 37 40
15 19 19 22 17 21 26 47 50 51 50 47 38 39 34 34 33 31 31 35 39 42 40 37 32 27 23 18 11 8 7 11 13 14 17 18 20 20 22 25 29 31 34 38
19 13 21 22 24 23 36 50 53 37 39 42 46 39 35 35 34 37 37 40 44 44 40 35 32 27 22 16 11 7 8 10 11 12 14 16 18 20 21 22 27 29 28 26
17 23 17 18 30 20 31 57 47 39 46 52 47 42 39 41 41 40 40 45 48 45 40 35 32 27 22 16 11 7 8 10 10 11 13 15 17 19 22 25 22 23 28 28
Wind_Direction
64 91 214 226 202 177 165 199 241 252 242 246 250 251 273 265 233 234 231 229 230 229 224 222 221 223 223 229 240 252 272 295 317 324 324 329 333 333 330 328 327 325 324 324
41 236 202 126 144 170 165 225 263 279 301 192 267 259 263 257 249 238 230 228 233 227 221 217 217 217 224 232 240 252 268 293 310 321 325 329 328 329 329 328 327 324 324 324
177 205 119 151 171 173 212 196 237 240 327 255 298 267 242 276 258 255 247 249 244 234 228 217 215 217 222 228 238 249 261 286 306 317 322 323 324 328 332 328 326 325 324 324
231 194 173 171 214 155 244 211 234 286 3 258 26 291 251 247 276 246 251 244 244 237 229 224 218 217 220 228 235 243 255 283 301 315 321 324 327 328 328 325 323 321 321 322
240 171 177 191 215 166 225 140 168 146 221 346 237 275 262 18 263 266 253 254 249 245 237 227 220 220 222 227 233 239 253 282 301 316 320 322 325 325 323 323 320 319 318 320
248 262 174 206 89 159 126 97 61 59 72 289 222 192 215 185 209 253 249 263 256 248 238 231 225 218 221 224 230 237 252 280 301 314 317 322 324 324 323 320 317 317 318 319
273 211 178 162 116 62 106 76 316 324 347 239 165 217 254 229 221 221 251 284 281 258 238 228 218 213 217 221 229 240 256 280 300 311 318 322 323 321 317 317 317 317 318 318
185 273 178 177 196 181 176 170 168 233 233 280 344 245 264 226 254 255 256 271 269 247 238 233 219 216 216 220 228 238 255 284 302 311 318 320 317 318 317 318 318 319 318 318
177 262 107 168 141 142 183 189 168 100 113 340 240 273 281 261 275 262 261 259 254 243 236 231 219 217 218 220 229 242 263 288 303 311 315 317 319 317 318 319 319 318 318 317
221 303 170 158 134 45 177 170 78 11 257 264 267 276 253 242 237 241 238 239 251 242 236 228 219 216 216 221 230 244 268 289 301 308 313 319 317 317 319 319 319 317 316 316
145 157 224 124 212 168 132 213 129 163 163 204 275 268 203 221 189 221 224 233 243 236 238 233 221 214 216 222 232 245 265 284 297 306 314 315 317 319 318 319 319 317 316 316
202 159 233 233 211 332 221 199 176 202 228 252 141 271 189 201 208 220 232 246 241 239 242 236 225 210 212 221 230 241 260 280 295 305 310 313 316 318 320 321 321 320 319 319
177 218 248 260 90 13 221 199 222 236 143 207 180 253 108 204 242 236 239 240 249 257 242 234 221 212 216 219 225 238 256 276 290 300 308 314 317 319 321 323 322 322 322 321
165 179 198 233 231 133 185 217 218 220 227 233 232 256 268 265 277 273 265 266 267 256 239 234 217 214 215 216 224 236 254 272 289 302 310 315 319 322 323 322 323 325 324 321
174 229 227 245 255 181 211 236 217 216 228 219 250 244 254 264 265 274 281 278 259 246 239 233 221 212 211 213 220 234 254 277 295 306 314 318 322 324 324 326 326 324 325 322
218 247 246 254 255 197 249 255 240 231 237 243 252 259 260 268 277 281 278 275 255 246 244 236 223 213 208 211 220 238 262 282 303 316 320 324 324 327 328 328 327 327 326 325
175 195 205 251 196 118 270 247 240 255 240 232 244 252 273 271 267 264 269 254 253 251 241 227 221 212 204 208 221 240 263 292 312 320 323 327 329 330 330 330 331 330 329 330
208 211 228 248 92 228 250 269 206 231 251 239 245 261 260 263 272 275 264 255 252 243 233 224 217 201 198 203 216 236 270 303 317 322 327 331 329 330 331 332 335 333 333 337
229 212 237 230 232 252 284 220 160 200 265 247 219 244 254 259 288 281 265 262 259 252 236 223 211 192 192 201 210 231 278 311 321 328 331 331 330 332 335 335 338 339 338 339
227 231 234 233 239 244 248 266 156 104 269 260 221 240 243 148 240 259 273 259 236 226 218 206 189 186 190 196 205 230 282 309 324 331 334 333 333 336 337 337 340 344 342 342
171 210 224 232 243 247 253 141 135 192 251 155 210 224 227 195 219 244 248 210 211 209 199 186 181 183 188 192 200 227 275 309 324 330 330 331 334 337 336 339 345 346 345 344
215 189 215 231 246 254 177 136 210 240 256 263 230 224 202 222 223 224 218 200 194 187 178 180 179 183 187 191 203 223 269 308 323 328 330 331 335 338 341 342 346 351 348 349
234 211 221 200 207 208 195 218 228 238 245 246 234 237 228 223 218 211 200 194 187 181 178 182 186 185 187 194 206 226 273 311 322 328 330 331 339 344 347 347 350 354 353 354
222 228 228 240 232 233 226 228 234 233 235 242 246 249 240 222 220 207 198 190 184 183 183 183 186 186 191 197 204 236 287 315 326 329 331 333 342 349 355 352 354 1 357 357
222 201 223 242 244 245 249 245 244 240 243 235 236 240 231 226 223 210 196 192 188 185 185 187 188 190 192 197 209 241 291 313 323 326 330 338 347 351 359 6 1 5 5 353
221 225 220 229 229 225 241 249 250 240 234 236 233 226 228 233 223 208 198 194 189 186 186 186 189 190 193 198 210 240 286 308 316 327 337 344 354 356 359 359 11 14 11 12